Hourly Data Report for March 07, 2012

BAGOTVILLE A
QUEBEC

48°20'00.000" N
71°00'00.000" W
159.10 m
7060400
71727
YBG

Download Data

Hourly Data (March 2012)
Hourly Data Report for March 7, 2012
TIME
LST
Temp Definition
°C
Dew Point Definition
°C
Rel Hum Definition
%
Precip. Amount Definition
mm

Wind Dir Definition
10's deg

Wind Spd Definition
km/h
Visibility Definition
km
Stn Press Definition
kPa
Hmdx Definition


Wind Chill Definition


Weather Definition


00:00 -11.5 -14.2 80   9 9 24.1 100.95   -17 Mostly Cloudy
01:00 -12.1 -14.5 82   14 6 24.1 100.97   -16 Mainly Clear
02:00 -11.5 -13.3 86   11 7 24.1 100.94   -16 Mostly Cloudy
03:00 -11.6 -13.4 86   12 7 24.1 100.83   -16 Cloudy
04:00 -11.5 -13.3 86   10 15 24.1 100.73   -19 Cloudy
05:00 -10.6 -12.7 85   10 17 24.1 100.62   -18 Mostly Cloudy
06:00 -9.6 -12.0 83   11 15 4.0 100.54   -16 Snow Showers
07:00 -9.2 -11.1 86   10 20 1.2 100.46   -17 Snow Showers
08:00 -7.7 -9.7 86   10 26 1.2 100.33   -16 Snow
09:00 -6.8 -8.7 86   9 26 16.1 100.20   -15 Snow
10:00 -6.0 -8.4 83   9 33 40.2 100.07   -15 Snow
11:00 -4.6 -7.4 81   9 30 40.2 99.90   -12 Cloudy
12:00 -3.7 -6.3 82   10 28 40.2 99.78   -11 Cloudy
13:00 -2.6 -5.5 80   10 32 40.2 99.57   -10 Mostly Cloudy
14:00 -0.5 -3.2 82   9 28 40.2 99.45   -7 Mostly Cloudy
15:00 0.0 -2.0 86   9 24 40.2 99.40   -6 Mostly Cloudy
16:00 0.4 -1.8 85   9 26 40.2 99.35     Mostly Cloudy
17:00 0.5 -1.2 88   9 26 40.2 99.29     Cloudy
18:00 0.4 -1.8 85   9 22 24.1 99.24     Mostly Cloudy
19:00 -0.4 -2.5 86   10 17 24.1 99.16   -5 Mostly Cloudy
20:00 -0.2 -0.7 96   11 17 24.1 99.13   -5 Mostly Cloudy
21:00 0.2 -3.2 78   9 22 24.1 99.01     Cloudy
22:00 1.1 -1.8 81   10 20 24.1 98.92     Cloudy
23:00 1.1 -1.7 82   9 17 24.1 98.85     Cloudy

Notes on Data Quality.

Legend

  • E = Estimated
  • M = Missing
  • NA = Not Available*
  • [empty] = Indicates an unobserved value
Date modified: